DLH446 EDDF-KDEN

Flight info

Callsign DLH446
Flight time N/A
Altitude 36000
Route OBOKA3D OBOKA Z28 DIBIR DCT BUDIP DCT ALFEN DCT AMGOD DCT TOPPA DCT ROLUM DCT RODSI DCT GIVEM DCT NEXUS/N0495F380 DCT ATSIX/M084F380 DCT 63N020W 6430N03000W 65N040W 65N050W DCT CLAVY DCT MUSVA/N0487F380 DCT BEPEG/N0488F400 DCT 60N080W 55N090W DCT HML DCT KP06A DCT KD81Y DCT NYTRO AALLE4
Aircraft A359/H-SDE2E3GHIJ3J4J5LM1ORWXY/LB1D1

Departure

Time 2026-04-18 06:37
Airport Frankfurt Main Airport (EDDF)

Arrival

Time N/A
Airport Denver International Airport (KDEN)
Time Latitude Longitude Altitude Speed Heading
2026-04-18 06:05 50.04699 8.56161 368 ft 0 kts 340°
2026-04-18 06:24 50.04696 8.56162 362 ft 3 kts 340°
2026-04-18 06:25 50.04671 8.56176 364 ft 4 kts 340°
2026-04-18 06:25 50.04647 8.56191 369 ft 4 kts 331°
2026-04-18 06:25 50.04628 8.56216 366 ft 4 kts 290°
2026-04-18 06:25 50.04626 8.56256 365 ft 4 kts 258°
2026-04-18 06:26 50.04631 8.56286 368 ft 0 kts 251°
2026-04-18 06:26 50.04624 8.56254 365 ft 4 kts 250°
2026-04-18 06:26 50.04614 8.56215 368 ft 4 kts 249°
2026-04-18 06:26 50.04605 8.56176 364 ft 4 kts 249°
2026-04-18 06:27 50.04595 8.56136 370 ft 4 kts 250°
2026-04-18 06:27 50.04586 8.56097 369 ft 4 kts 250°
2026-04-18 06:27 50.04582 8.56082 369 ft 0 kts 250°
2026-04-18 06:29 50.04573 8.56044 367 ft 10 kts 250°
2026-04-18 06:30 50.04511 8.55949 370 ft 14 kts 197°
2026-04-18 06:30 50.04418 8.55915 366 ft 14 kts 184°
2026-04-18 06:30 50.04318 8.55947 365 ft 15 kts 160°
2026-04-18 06:30 50.04223 8.55918 363 ft 15 kts 203°
2026-04-18 06:31 50.04121 8.55956 366 ft 16 kts 156°
2026-04-18 06:31 50.04044 8.55936 366 ft 9 kts 247°
2026-04-18 06:31 50.04000 8.55754 363 ft 21 kts 250°
2026-04-18 06:31 50.03948 8.55533 365 ft 22 kts 250°
2026-04-18 06:32 50.03895 8.55311 360 ft 22 kts 249°
2026-04-18 06:32 50.03841 8.55085 359 ft 23 kts 249°
2026-04-18 06:32 50.03803 8.54929 363 ft 23 kts 249°
2026-04-18 06:32 50.03746 8.54686 360 ft 24 kts 250°
2026-04-18 06:33 50.03685 8.54432 359 ft 26 kts 250°
2026-04-18 06:33 50.03602 8.54081 358 ft 26 kts 250°
2026-04-18 06:33 50.03558 8.53899 350 ft 27 kts 249°
2026-04-18 06:33 50.03470 8.53535 355 ft 28 kts 249°
2026-04-18 06:34 50.03428 8.53363 352 ft 20 kts 249°
2026-04-18 06:34 50.03370 8.53323 350 ft 8 kts 147°
2026-04-18 06:34 50.03352 8.53350 351 ft 0 kts 130°
2026-04-18 06:35 50.03344 8.53367 353 ft 6 kts 128°
2026-04-18 06:35 50.03309 8.53437 355 ft 8 kts 127°
2026-04-18 06:35 50.03281 8.53509 352 ft 7 kts 103°
2026-04-18 06:35 50.03291 8.53578 353 ft 3 kts 68°
2026-04-18 06:36 50.03291 8.53579 353 ft 0 kts 68°
2026-04-18 06:36 50.03298 8.53606 350 ft 18 kts 68°
2026-04-18 06:36 50.03416 8.54103 353 ft 78 kts 70°
2026-04-18 06:37 50.03670 8.55166 356 ft 130 kts 70°
2026-04-18 06:37 50.04040 8.56705 398 ft 169 kts 70°
2026-04-18 06:37 50.04446 8.58391 997 ft 166 kts 70°
2026-04-18 06:37 50.04843 8.60093 1541 ft 169 kts 70°
2026-04-18 06:38 50.05236 8.61829 1968 ft 178 kts 70°
2026-04-18 06:38 50.05680 8.63725 2171 ft 194 kts 70°
2026-04-18 06:38 50.06166 8.65804 2360 ft 213 kts 70°
2026-04-18 06:38 50.06674 8.68047 2639 ft 226 kts 71°
2026-04-18 06:39 50.07285 8.70319 3139 ft 230 kts 59°
2026-04-18 06:39 50.08441 8.72059 3514 ft 241 kts 28°
2026-04-18 06:39 50.10008 8.73173 3810 ft 255 kts 23°
2026-04-18 06:39 50.11704 8.74266 4072 ft 272 kts 22°
2026-04-18 06:40 50.13489 8.75364 4629 ft 275 kts 21°
2026-04-18 06:40 50.15262 8.76467 5318 ft 274 kts 22°
2026-04-18 06:40 50.17022 8.77620 5958 ft 274 kts 23°
2026-04-18 06:40 50.18777 8.78822 6521 ft 278 kts 23°
2026-04-18 06:41 50.20557 8.80059 7045 ft 281 kts 23°
2026-04-18 06:41 50.22329 8.81301 7573 ft 285 kts 23°
2026-04-18 06:41 50.24161 8.82538 8089 ft 289 kts 19°
2026-04-18 06:41 50.26137 8.82701 8655 ft 284 kts 343°
2026-04-18 06:42 50.27886 8.81381 9310 ft 280 kts 320°
2026-04-18 06:42 50.29150 8.79086 9856 ft 281 kts 296°
2026-04-18 06:42 50.29864 8.76221 10371 ft 284 kts 285°
2026-04-18 06:42 50.30441 8.73172 10564 ft 301 kts 285°
2026-04-18 06:43 50.31059 8.69952 10765 ft 316 kts 286°
2026-04-18 06:43 50.31724 8.66607 11008 ft 329 kts 287°
2026-04-18 06:43 50.32444 8.63137 11274 ft 340 kts 287°
2026-04-18 06:43 50.33206 8.59603 11708 ft 345 kts 289°
2026-04-18 06:44 50.34187 8.56170 12250 ft 347 kts 295°
2026-04-18 06:44 50.35280 8.52773 12746 ft 350 kts 296°
2026-04-18 06:44 50.36400 8.49372 13225 ft 352 kts 296°
2026-04-18 06:44 50.37537 8.45955 13727 ft 355 kts 296°
2026-04-18 06:45 50.38689 8.42512 14193 ft 357 kts 296°
2026-04-18 06:45 50.39847 8.39054 14618 ft 359 kts 296°
2026-04-18 06:45 50.41000 8.35616 15028 ft 362 kts 296°
2026-04-18 06:45 50.42173 8.32117 15496 ft 363 kts 296°
2026-04-18 06:46 50.43349 8.28607 15941 ft 365 kts 296°
2026-04-18 06:46 50.44535 8.25058 16361 ft 367 kts 296°
2026-04-18 06:46 50.45725 8.21497 16776 ft 370 kts 296°
2026-04-18 06:46 50.46922 8.17908 17194 ft 372 kts 296°
2026-04-18 06:47 50.48123 8.14302 17610 ft 374 kts 296°
2026-04-18 06:47 50.49332 8.10667 18014 ft 376 kts 296°
2026-04-18 06:47 50.50547 8.07010 18406 ft 379 kts 296°
2026-04-18 06:47 50.51768 8.03330 18755 ft 381 kts 296°
2026-04-18 06:48 50.52980 7.99672 19105 ft 383 kts 296°
2026-04-18 06:48 50.54210 7.95953 19456 ft 385 kts 296°
2026-04-18 06:48 50.55443 7.92218 19797 ft 386 kts 296°
2026-04-18 06:48 50.56685 7.88452 20155 ft 388 kts 296°
2026-04-18 06:49 50.57929 7.84675 20504 ft 389 kts 296°
2026-04-18 06:49 50.59174 7.80884 20847 ft 391 kts 296°
2026-04-18 06:49 50.60425 7.77072 21165 ft 393 kts 296°
2026-04-18 06:49 50.61685 7.73231 21498 ft 395 kts 296°
2026-04-18 06:50 50.62948 7.69371 21846 ft 397 kts 295°
2026-04-18 06:50 50.64214 7.65495 22160 ft 399 kts 295°
2026-04-18 06:50 50.65469 7.61648 22488 ft 401 kts 295°
2026-04-18 06:50 50.66761 7.57681 22821 ft 402 kts 295°
2026-04-18 06:51 50.68041 7.53744 23148 ft 404 kts 295°